QPF
0.00 0.00 0.00 0.00 0.00 0.00 0.00 0.00 0.00 0.00 0.00 0.00 0.00 0.00 0.00 0.00 0.00 0.00 0.00 0.00 0.00 0.00 0.00 0.00 0.00 0.00 0.00 0.00 0.00 0.00 0.00 0.00
0.00 0.00 0.00 0.00 0.00 0.00 0.00 0.00 0.00 0.00 0.00 0.00 0.00 0.00 0.00 0.00 0.00 0.00 0.00 0.00 0.00 0.00 0.00 0.00 0.00 0.00 0.00 0.00 0.00 0.00 0.00 0.00
0.00 0.00 0.00 0.00 0.00 0.00 0.00 0.00 0.00 0.00 0.00 0.00 0.00 0.00 0.00 0.00 0.00 0.00 0.00 0.00 0.00 0.00 0.00 0.00 0.00 0.00 0.00 0.00 0.00 0.00 0.00 0.00
0.00 0.00 0.00 0.00 0.00 0.00 0.00 0.00 0.00 0.00 0.00 0.00 0.00 0.00 0.00 0.00 0.00 0.00 0.00 0.00 0.00 0.00 0.00 0.00 0.00 0.00 0.00 0.00 0.00 0.00 0.00 0.00
0.00 0.00 0.00 0.00 0.00 0.00 0.00 0.00 0.00 0.00 0.00 0.00 0.00 0.00 0.00 0.00 0.00 0.00 0.00 0.00 0.00 0.00 0.00 0.00 0.00 0.00 0.00 0.00 0.00 0.00 0.00 0.00
0.00 0.00 0.00 0.00 0.00 0.00 0.00 0.00 0.00 0.00 0.00 0.00 0.00 0.00 0.00 0.00 0.00 0.00 0.00 0.00 0.00 0.00 0.00 0.00 0.00 0.00 0.00 0.00 0.00 0.00 0.00 0.00
0.00 0.00 0.00 0.00 0.00 0.00 0.00 0.00 0.00 0.00 0.00 0.00 0.00 0.00 0.00 0.00 0.00 0.00 0.00 0.00 0.00 0.00 0.00 0.00 0.00 0.00 0.00 0.00 0.00 0.00 0.00 0.00
0.00 0.00 0.00 0.00 0.00 0.00 0.00 0.00 0.00 0.00 0.00 0.00 0.00 0.00 0.00 0.00 0.00 0.00 0.00 0.00 0.00 0.00 0.00 0.00 0.00 0.00 0.00 0.00 0.00 0.00 0.01 0.01
0.00 0.00 0.00 0.00 0.00 0.00 0.00 0.00 0.00 0.00 0.00 0.00 0.00 0.00 0.00 0.00 0.00 0.00 0.00 0.00 0.00 0.00 0.00 0.00 0.00 0.00 0.00 0.00 0.00 0.00 0.01 0.02
0.00 0.00 0.00 0.00 0.00 0.00 0.00 0.00 0.00 0.00 0.00 0.00 0.00 0.00 0.00 0.00 0.00 0.00 0.00 0.00 0.00 0.00 0.00 0.00 0.00 0.00 0.00 0.00 0.00 0.01 0.02 0.01
0.00 0.00 0.00 0.00 0.00 0.00 0.00 0.00 0.00 0.00 0.00 0.00 0.00 0.00 0.00 0.00 0.00 0.00 0.00 0.00 0.00 0.00 0.00 0.00 0.00 0.00 0.00 0.00 0.01 0.01 0.00 0.01
0.00 0.00 0.00 0.00 0.00 0.00 0.00 0.00 0.00 0.00 0.00 0.00 0.00 0.00 0.00 0.00 0.00 0.00 0.00 0.00 0.00 0.00 0.00 0.00 0.00 0.00 0.00 0.00 0.00 0.00 0.00 0.01
0.00 0.00 0.00 0.00 0.00 0.00 0.00 0.00 0.00 0.00 0.00 0.00 0.00 0.00 0.00 0.00 0.00 0.00 0.00 0.00 0.00 0.00 0.00 0.00 0.00 0.00 0.00 0.00 0.01 0.00 0.00 0.00
0.00 0.00 0.00 0.00 0.00 0.00 0.00 0.00 0.00 0.00 0.00 0.00 0.00 0.00 0.00 0.00 0.00 0.00 0.00 0.00 0.00 0.00 0.00 0.00 0.00 0.00 0.00 0.00 0.00 0.00 0.00 0.00
0.00 0.00 0.00 0.00 0.00 0.00 0.00 0.00 0.00 0.00 0.00 0.00 0.00 0.00 0.00 0.00 0.00 0.00 0.00 0.00 0.00 0.00 0.00 0.00 0.00 0.00 0.00 0.00 0.00 0.00 0.00 0.00
0.00 0.00 0.00 0.00 0.00 0.00 0.00 0.00 0.00 0.00 0.00 0.00 0.00 0.00 0.00 0.00 0.00 0.00 0.00 0.00 0.00 0.00 0.00 0.00 0.00 0.00 0.00 0.00 0.00 0.00 0.00 0.00
0.00 0.00 0.00 0.00 0.00 0.00 0.00 0.00 0.00 0.00 0.00 0.00 0.00 0.00 0.00 0.00 0.00 0.00 0.00 0.00 0.00 0.00 0.00 0.00 0.00 0.00 0.00 0.00 0.00 0.00 0.00 0.00
0.00 0.00 0.00 0.00 0.00 0.00 0.00 0.00 0.00 0.00 0.00 0.00 0.00 0.00 0.00 0.00 0.00 0.00 0.00 0.00 0.00 0.00 0.00 0.00 0.00 0.00 0.00 0.00 0.00 0.00 0.00 0.00
0.00 0.00 0.00 0.00 0.00 0.00 0.00 0.00 0.00 0.00 0.00 0.00 0.00 0.00 0.00 0.00 0.00 0.00 0.00 0.00 0.00 0.00 0.00 0.00 0.00 0.00 0.00 0.00 0.00 0.00 0.00 0.00
MSLP
1018.88 1019.92 1020.47 1021.36 1022.44 1023.19 1023.67 1024.04 1024.26 1023.90 1023.82 1023.80 1023.94 1024.06 1024.24 1024.51 1024.80 1025.23 1025.42 1025.47 1025.17 1024.84 1024.52 1024.27 1023.99 1023.67 1023.37 1023.13 1022.85 1022.47 1022.29 1021.89
1018.50 1019.74 1020.81 1021.73 1022.77 1023.32 1023.67 1024.25 1024.45 1024.27 1024.13 1024.25 1024.48 1024.44 1024.46 1024.61 1024.75 1024.96 1025.15 1025.29 1025.12 1024.84 1024.78 1024.46 1024.18 1024.03 1023.74 1023.43 1023.32 1023.19 1022.91 1022.55
1017.87 1019.46 1020.90 1022.05 1022.85 1023.53 1023.96 1024.29 1024.72 1024.89 1024.78 1024.67 1024.86 1024.69 1024.55 1024.60 1024.82 1024.84 1025.02 1025.13 1025.10 1024.95 1025.01 1024.74 1024.55 1024.38 1024.06 1023.86 1023.80 1024.00 1024.18 1023.62
1017.21 1019.15 1020.68 1021.85 1022.84 1023.65 1024.08 1024.62 1025.01 1025.47 1025.49 1025.13 1025.22 1024.81 1024.69 1024.92 1025.04 1025.10 1025.13 1025.05 1025.01 1025.01 1025.07 1024.96 1024.82 1024.61 1024.44 1024.18 1024.29 1024.60 1024.86 1024.34
1016.43 1018.57 1020.24 1021.52 1022.64 1023.74 1024.46 1024.98 1025.42 1025.76 1026.03 1025.81 1025.76 1025.67 1025.48 1025.50 1025.45 1025.38 1025.06 1024.87 1024.88 1024.94 1025.07 1024.97 1024.98 1024.90 1024.79 1024.43 1024.57 1025.04 1025.16 1024.74
1015.65 1017.98 1019.72 1021.21 1022.65 1023.88 1024.77 1025.33 1025.84 1026.17 1026.24 1026.38 1026.36 1026.28 1026.17 1025.92 1025.87 1025.59 1025.42 1025.14 1025.02 1025.17 1025.23 1025.15 1025.09 1025.09 1024.89 1024.60 1025.12 1025.36 1025.28 1025.08
1015.23 1017.64 1019.48 1021.14 1022.63 1023.95 1024.89 1025.55 1026.18 1026.39 1026.50 1026.63 1026.66 1026.67 1026.44 1026.31 1026.29 1026.06 1025.93 1025.68 1025.47 1025.58 1025.54 1025.47 1025.27 1025.25 1024.86 1024.93 1025.26 1025.24 1024.95 1024.83
1015.39 1017.69 1019.63 1021.41 1022.92 1024.14 1025.12 1025.75 1026.26 1026.54 1026.76 1026.78 1026.87 1026.89 1026.68 1026.53 1026.63 1026.47 1026.18 1026.07 1025.92 1025.96 1025.96 1025.88 1025.63 1025.25 1024.89 1025.19 1025.26 1024.99 1024.60 1024.51
1015.87 1018.05 1019.94 1021.63 1023.05 1024.31 1025.26 1025.70 1026.31 1026.75 1026.86 1026.87 1026.97 1027.10 1027.11 1027.05 1026.94 1026.77 1026.56 1026.52 1026.38 1026.36 1026.37 1026.19 1025.86 1025.32 1025.35 1025.56 1025.29 1024.77 1024.43 1024.19
1016.46 1018.50 1020.21 1021.73 1023.30 1024.64 1025.34 1025.89 1026.54 1026.81 1026.94 1027.11 1027.17 1027.29 1027.28 1027.21 1027.02 1026.91 1026.91 1026.92 1026.65 1026.74 1026.59 1026.33 1025.91 1025.64 1025.68 1025.76 1025.41 1024.79 1024.32 1024.00
1017.01 1018.94 1020.59 1022.19 1023.68 1025.03 1025.82 1026.27 1026.57 1026.84 1027.03 1027.24 1027.35 1027.37 1027.32 1027.25 1027.19 1027.29 1027.33 1027.21 1027.00 1026.93 1026.58 1026.34 1025.98 1026.11 1026.05 1025.87 1025.37 1024.83 1024.33 1023.80
1017.73 1019.48 1021.21 1022.78 1024.18 1025.27 1025.99 1026.25 1026.51 1026.92 1027.24 1027.51 1027.69 1027.75 1027.59 1027.39 1027.45 1027.50 1027.51 1027.27 1027.08 1026.92 1026.63 1026.32 1026.52 1026.58 1026.28 1026.02 1025.51 1024.84 1024.22 1023.64
1018.46 1020.27 1021.97 1023.47 1024.49 1025.39 1026.01 1026.31 1026.66 1026.91 1027.24 1027.53 1027.69 1027.85 1027.96 1027.70 1027.69 1027.67 1027.53 1027.35 1027.10 1026.89 1026.74 1026.64 1026.94 1026.76 1026.42 1026.24 1025.58 1024.83 1024.04 1023.38
1019.42 1021.11 1022.51 1023.77 1024.84 1025.69 1026.05 1026.44 1026.88 1027.14 1027.26 1027.46 1028.01 1028.02 1028.02 1027.98 1027.92 1027.78 1027.62 1027.41 1027.15 1026.96 1026.68 1026.91 1027.05 1026.76 1026.62 1026.36 1025.63 1024.73 1023.87 1023.26
1020.16 1021.61 1022.82 1023.99 1025.12 1025.68 1026.24 1026.87 1027.30 1027.39 1027.50 1027.74 1028.11 1028.25 1028.12 1028.11 1028.03 1027.83 1027.68 1027.38 1027.23 1026.98 1026.66 1026.92 1026.89 1026.76 1026.72 1026.33 1025.49 1024.59 1023.77 1023.08
1020.66 1021.88 1023.11 1024.29 1025.23 1025.89 1026.47 1026.97 1027.47 1027.63 1027.77 1028.02 1028.21 1028.26 1028.18 1028.24 1028.16 1027.96 1027.70 1027.40 1027.15 1026.95 1026.75 1026.93 1026.83 1026.71 1026.78 1026.20 1025.48 1024.59 1023.72 1022.94
1021.19 1022.20 1023.45 1024.28 1025.18 1026.05 1026.82 1027.51 1027.89 1028.03 1028.18 1028.25 1028.45 1028.32 1028.34 1028.39 1028.32 1028.05 1027.81 1027.56 1027.31 1026.95 1026.85 1026.93 1026.93 1027.04 1026.86 1026.16 1025.43 1024.50 1023.40 1022.89
1021.36 1022.62 1023.51 1024.48 1025.28 1026.22 1027.04 1027.88 1028.09 1028.32 1028.48 1028.57 1028.67 1028.62 1028.57 1028.64 1028.51 1028.25 1027.97 1027.63 1027.30 1026.99 1026.99 1027.03 1027.11 1027.44 1026.94 1026.36 1025.46 1024.40 1023.59 1023.19
1021.57 1022.71 1023.81 1025.06 1026.06 1027.06 1027.49 1028.06 1028.53 1028.52 1029.09 1029.16 1029.05 1028.89 1028.91 1028.92 1028.77 1028.43 1028.17 1027.71 1027.36 1027.08 1027.16 1027.25 1027.33 1027.45 1027.14 1026.65 1025.80 1024.83 1024.14 1023.57
Thickness
5665 5652 5646 5634 5620 5608 5599 5589 5579 5574 5566 5558 5547 5536 5525 5514 5503 5490 5477 5466 5458 5449 5440 5430 5419 5409 5399 5391 5384 5379 5374 5372
5665 5649 5637 5625 5612 5602 5593 5581 5571 5564 5557 5546 5534 5524 5514 5502 5490 5480 5468 5456 5446 5437 5424 5414 5403 5392 5384 5376 5369 5363 5358 5357
5664 5647 5631 5617 5606 5595 5585 5575 5562 5552 5544 5535 5523 5513 5503 5492 5480 5469 5458 5446 5435 5423 5410 5398 5387 5376 5368 5361 5354 5345 5335 5335
5661 5642 5627 5614 5601 5587 5578 5565 5553 5540 5531 5522 5510 5502 5491 5479 5467 5456 5445 5434 5422 5409 5395 5383 5372 5362 5353 5346 5339 5329 5318 5316
5662 5643 5625 5610 5597 5580 5567 5555 5542 5531 5517 5508 5497 5487 5477 5466 5456 5445 5434 5424 5411 5397 5383 5370 5359 5348 5339 5332 5323 5312 5304 5300
5662 5641 5624 5608 5589 5572 5557 5544 5531 5519 5508 5495 5483 5473 5463 5454 5443 5434 5422 5411 5399 5384 5370 5357 5347 5336 5327 5320 5307 5296 5289 5283
5660 5639 5619 5600 5582 5564 5548 5534 5520 5508 5496 5484 5473 5462 5452 5442 5430 5420 5408 5398 5384 5370 5357 5345 5335 5325 5319 5307 5295 5286 5280 5274
5652 5629 5610 5590 5571 5554 5539 5525 5510 5498 5486 5475 5462 5451 5442 5432 5419 5408 5398 5385 5372 5358 5344 5334 5324 5316 5309 5296 5285 5278 5274 5268
5641 5620 5600 5582 5563 5545 5530 5517 5502 5488 5476 5465 5452 5441 5430 5419 5408 5397 5386 5372 5359 5345 5332 5322 5313 5306 5296 5284 5277 5273 5268 5262
5629 5610 5592 5574 5554 5534 5520 5507 5491 5478 5465 5453 5443 5432 5420 5409 5399 5387 5374 5359 5347 5332 5322 5313 5305 5297 5287 5276 5270 5267 5262 5255
5620 5600 5581 5563 5542 5522 5507 5494 5482 5468 5456 5445 5435 5424 5413 5402 5389 5376 5362 5349 5335 5323 5315 5306 5298 5288 5278 5270 5266 5261 5255 5250
5607 5588 5568 5548 5529 5512 5498 5486 5473 5459 5447 5435 5424 5413 5403 5393 5380 5366 5351 5338 5327 5317 5309 5301 5289 5279 5271 5265 5260 5256 5250 5246
5593 5574 5554 5534 5519 5504 5490 5477 5464 5453 5442 5430 5418 5405 5392 5383 5369 5355 5341 5330 5320 5313 5303 5294 5282 5273 5266 5259 5256 5251 5247 5243
5577 5558 5540 5523 5507 5493 5481 5468 5455 5445 5436 5425 5409 5397 5385 5372 5359 5346 5333 5324 5316 5306 5298 5288 5277 5270 5262 5255 5251 5247 5244 5240
5561 5545 5532 5514 5496 5485 5472 5457 5445 5437 5427 5415 5402 5388 5377 5364 5351 5339 5328 5320 5311 5301 5294 5283 5274 5267 5259 5252 5248 5245 5242 5239
5549 5538 5520 5502 5488 5475 5463 5450 5439 5429 5419 5407 5394 5382 5370 5356 5343 5333 5325 5316 5307 5298 5290 5279 5271 5264 5256 5251 5245 5242 5241 5240
5540 5528 5509 5495 5481 5467 5452 5440 5429 5420 5409 5399 5385 5375 5362 5348 5338 5330 5322 5312 5303 5295 5286 5277 5269 5260 5252 5248 5244 5242 5244 5241
5532 5516 5503 5488 5474 5458 5446 5431 5422 5412 5400 5389 5377 5366 5355 5343 5334 5327 5317 5309 5300 5293 5284 5274 5267 5256 5250 5245 5243 5243 5243 5239
5524 5509 5495 5476 5461 5444 5436 5424 5412 5405 5389 5378 5368 5359 5348 5339 5330 5324 5314 5306 5298 5291 5281 5272 5264 5255 5248 5243 5241 5240 5240 5238